Starlink 32767

operational
NORAD ID: 62601 Int'l Des: 2025-008 Owner: SPXS Country: US Constellation: starlink
LEOCIRCULAR

关于 Starlink 32767

正在加载描述...

实时位置

正在加载3D地球...

即将过境

高度历史

Altitude vs Time

uPlot chart will show altitude changes over time

两行轨道根数

1 62601U 25008Q 26034.21496160 .00037167 00000-0 13542-2 0 9995
2 62601 43.0010 112.4684 0001139 266.5742 93.4980 15.27558850 60350
Epoch: Feb 3, 2026 • Age: 10 hours

当前状态

高度 486.8 km
速度 7.63 km/s
星下点 42.66°N, 147.97°W
发射日期 Jan 13, 2025
运行时间 1 years
类型 internet

技术详情

分类 Payload
质量 730.00 kg
干质量 700.00 kg
总质量 730.00 kg
长度 0.30 m
直径 4.10 m
跨度 29.00 m
形状 Box + pan
制造商 SPXS
平台类型 Starlink V2M
阶段状态 In Orbit
所有者/国家 SPXS/US

大型星座

Loading constellations...